Regional Weather Roundup
Issued by NWS

Home | Current Version | Previous Version | Text Only | Print | Product List | Glossary Off
Versions: 1 2 3 4 5 6 7 8 9 10 11 12 13 14 15 16 17 18 19 20 21 22 23 24 25 26 27 28 29 30 31 32 33 34 35 36 37 38 39 40 41 42 43 44 45 46 47 48 49 50

869
ASUS43 KDMX 250003
RWRIA

WEATHER ROUNDUP FOR IOWA
NATIONAL WEATHER SERVICE DES MOINES IA
700 PM CDT SAT SEP 24 2016

NOTE: "FAIR" INDICATES FEW OR NO CLOUDS BELOW 12,000 FEET WITH NO
SIGNIFICANT WEATHER AND/OR OBSTRUCTIONS TO VISIBILITY.

* - THESE STATIONS ARE NOT NWS STATIONS...THUS NOT UNDER NWS
QUALITY CONTROL.  THEY ALSO DO NOT REPORT WEATHER SUCH
AS PRECIPITATION OR FOG.

IAZ001>003-012>014-020>022-031>034-043>046-250100-
   NORTHWEST IOWA

CITY           SKY/WX    TMP DP  RH WIND       PRES   REMARKS
CARROLL *      CLOUDY    68  66  94 E8        29.93F
CHEROKEE *     MOCLDY    70  68  95 SE8       29.89S
DENISON *      CLOUDY    70  68  94 VRB5      29.92R
LE MARS *      CLOUDY    73  70  88 S9        29.91R
ORANGE CITY *  MOCLDY    72  70  94 S9        29.92R
SHELDON *      CLOUDY    72  70  94 S10       29.90R
SIOUX CITY     CLOUDY    75  72  90 SE7       29.89R
6HR MIN TEMP:  70; 6HR MAX TEMP:  87; 6HR PCP:  0.20;

SPENCER        LGT RAIN  70  67  90 S13       29.92R
6HR MIN TEMP:  70; 6HR MAX TEMP:  85; 6HR PCP:  0.07;

STORM LAKE *   CLOUDY    68  64  88 SE10      29.92S
$$

IAZ055>058-069>071-079>083-090>094-250100-
   SOUTHWEST IOWA

CITY           SKY/WX    TMP DP  RH WIND       PRES   REMARKS
ATLANTIC *     LGT RAIN  72  70  94 SE6       29.94S
AUDUBON *      CLOUDY    68  64  88 S5        29.95F
CLARINDA *       N/A     70  70 100 MISG      29.94F
COUNCIL BLFS * CLOUDY    70  70 100 SE13      29.90F FOG
CRESTON *      CLOUDY    75  68  78 NW13      29.96F
HARLAN  *      LGT RAIN  72  70  94 SE7       29.95F
LAMONI         CLOUDY    81  71  71 SE9       29.96S HX  85
6HR MIN TEMP:  81; 6HR MAX TEMP:  87;

RED OAK *      LGT RAIN  72  70  94 VRB6      29.91F
SHENANDOAH *   LGT RAIN  70  68  94 VRB6      29.93S
$$

IAZ047>049-059>061-072>074-084-250100-
   CENTRAL IOWA

CITY           SKY/WX    TMP DP  RH WIND       PRES   REMARKS
AMES           CLOUDY    79  69  71 SE8       29.95F HX  81
6HR MIN TEMP:  79; 6HR MAX TEMP:  85;

ANKENY *         N/A    N/A N/A N/A MISG        N/A
BOONE *        LGT RAIN  73  66  78 W12G22    29.99R
CHARITON *       N/A     79  68  69 SE8       29.97S HX  81
DES MOINES     CLOUDY    83  68  60 SE12      29.95S HX  86
6HR MIN TEMP:  83; 6HR MAX TEMP:  89;

GRINNELL*      CLEAR     79  65  62 SE7       30.00R HX  80
KNOXVILLE *    CLEAR     81  66  61 SE9       29.96S HX  83
MARSHALLTOWN   CLEAR     78  68  71 SE10      29.98R HX  80
6HR MIN TEMP:  77; 6HR MAX TEMP:  84;

NEWTON *       CLEAR     81  64  57 SE8       29.97S HX  82
PELLA *        CLEAR     81  65  58 SE5       29.99R HX  82
PERRY *        RAIN      69  67  92 NW5       29.98S
$$

IAZ004>006-015-016-023>025-035-036-250100-
   NORTH CENTRAL IOWA

CITY           SKY/WX    TMP DP  RH WIND       PRES   REMARKS
ALGONA *       CLOUDY    75  66  73 SE8       29.94F
CLARION *      CLOUDY    77  64  65 SW15G22   29.99R
ESTHERVILLE    RAIN      69  69 100 SE3       29.93S
6HR MIN TEMP:  68; 6HR MAX TEMP:  83; 6HR PCP:  0.37;

FORT DODGE *   CLOUDY    66  63  88 S9        30.01R
MASON CITY     MOCLDY    76  67  73 SE9       30.00R
6HR MIN TEMP:  73; 6HR MAX TEMP:  81;

FOREST CITY *    N/A     75  66  73 SE8       29.98R
WEBSTER CITY * CLOUDY    73  64  73 W16       29.98R
IOWA FALLS *     N/A     80  66  63 SE6       29.99R HX  82
$$

IAZ007>011-017>019-026>030-037>042-050>054-066-250100-
   NORTHEAST IOWA

CITY           SKY/WX    TMP DP  RH WIND       PRES   REMARKS
CEDAR RAPIDS   CLEAR     76  70  82 E9        30.01F
6HR MIN TEMP:  74; 6HR MAX TEMP:  81;

CHARLES CITY * PTCLDY    73  68  83 SE13      30.02R
CLINTON *      CLEAR     72  67  84 E6        30.06S
DECORAH *      CLOUDY    68  66  94 VRB7G16   30.05S
DUBUQUE        CLEAR     68  65  90 CALM      30.07F FOG
6HR MIN TEMP:  67; 6HR MAX TEMP:  70;

MONTICELLO *   CLEAR     70  66  88 E5        30.05S
OELWEIN *      CLEAR     70  66  88 E10G18    30.04S
WATERLOO       CLEAR     75  67  76 SE14      29.99S
6HR MIN TEMP:  74; 6HR MAX TEMP:  81;

$$

IAZ064-065-067-068-078-250100-
   EAST CENTRAL IOWA

CITY           SKY/WX    TMP DP  RH WIND       PRES   REMARKS
DAVENPORT      CLEAR     74  67  78 E10       30.04F
6HR MIN TEMP:  72; 6HR MAX TEMP:  79;

IOWA CITY      CLEAR     79  69  71 E10       30.02S HX  81
6HR MIN TEMP:  77; 6HR MAX TEMP:  84;

MT. PLEASANT * CLEAR     82  66  59 SE6       30.01R HX  84
MUSCATINE *    CLEAR     79  70  73 E10       30.02S HX  81
QUAD CITIES    CLEAR     75  68  78 E7        30.03S
6HR MIN TEMP:  75; 6HR MAX TEMP:  82;

$$

IAZ062-063-075>077-085>089-095>099-250100-
   SOUTHEAST IOWA

CITY           SKY/WX    TMP DP  RH WIND       PRES   REMARKS
BURLINGTON     CLEAR     80  66  62 SE6       30.01S HX  82
6HR MIN TEMP:  74; 6HR MAX TEMP:  88;

FAIRFIELD *    CLEAR     79  63  57 SE6       30.00S HX  80
FORT MADISON *   N/A     82  66  57 CALM      30.02S HX  85
KEOKUK *       CLEAR     81  64  57 SE5       30.00S HX  82
OSKALOOSA *      N/A     80  64  58 SE6       30.00R HX  81
CENTERVILLE *    N/A     77  66  69 SE5       30.01R
OTTUMWA        CLEAR     78  66  66 SE6       29.99R HX  80
6HR MIN TEMP:  78; 6HR MAX TEMP:  88;

WASHINGTON *     N/A    N/A N/A N/A MISG        N/A
$$

ABBREVIATIONS USED IN REMARKS
   TC - TEMPERATURES IN CELSIUS
  WCI - WIND CHILL INDEX
   HX - HEAT INDEX
  VSB - VISIBILITY
$$





USA.gov is the U.S. government's official web portal to all federal, state and local government web resources and services.